Flag for U.S.A. Weather past 2 weeks in Lawrence, Kansas, U.S.A.

Now
44 °F

Clear.


Feels Like: 38 °F
Forecast: 39 / 66 °F
Wind: 13 mph from Southeast

Location: Lawrence Municipal Airport


UV Index: 5 (Moderate)

Visibility: 10 mi


Pressure: 29.93 "Hg

Humidity: 55%

Dew point: 29 °F

Location of LawrenceLocation

Historic Weather in Lawrence

°F

Lawrence temperature yesterday

Maximum temperature yesterday: 57 °F (at 3:52 PM)
Minimum temperature yesterday: 23 °F (at 6:52 AM)
Average temperature yesterday: 41 °F

Past Weeks' High & Low Weather Summary

 TemperatureHumidityPressure
High83 °F (Apr 12, 2:52 PM)97% (Apr 2, 3:52 PM)30.26 "Hg (Apr 2, 3:52 PM)
Low23 °F (Apr 15, 6:52 AM)18% (Apr 11, 1:52 PM)29.44 "Hg (Apr 13, 1:52 PM)
Average51 °F62%29.91 "Hg
* Reported Apr 1 4:52 AM — Apr 16 4:52 AM, Lawrence, Weather by CustomWeather, © 2014

Note: Actual official high and low records may vary slightly from our data, if they occured in-between our weather recording intervals... More about our weather records

Advertising

Historic Weather Conditions — Data for Previous 24 hours

 ConditionsComfort  
Time TempWeatherWind HumidityBarometerVisibility
4:52 AM
Apr 16
44 °FClear.13 mph55%29.93 "Hg10 mi
3:52 AM46 °FClear.13 mph51%29.95 "Hg10 mi
2:52 AM45 °FClear.13 mph53%29.96 "Hg10 mi
1:52 AM46 °FClear.15 mph51%29.98 "Hg10 mi
12:52 AM46 °FClear.13 mph54%29.99 "Hg10 mi
11:52 PM
Apr 15
46 °FClear.12 mph56%30.01 "Hg10 mi
10:52 PM47 °FClear.13 mph52%30.03 "Hg10 mi
9:52 PM48 °FClear.12 mph52%30.02 "Hg10 mi
8:52 PM49 °FSunny.10 mph52%30.02 "Hg10 mi
7:52 PM52 °FSunny.13 mph45%30.03 "Hg10 mi
5:52 PM57 °FSunny.12 mph33%30.05 "Hg10 mi
4:52 PM57 °FSunny.12 mph31%30.08 "Hg10 mi
3:52 PM57 °FSunny.13 mph29%30.11 "Hg10 mi
2:52 PM53 °FSunny.No wind32%30.14 "Hg10 mi
1:52 PM51 °FSunny.5 mph31%30.18 "Hg10 mi
12:52 PM49 °FSunny.7 mph38%30.21 "Hg10 mi
11:52 AM46 °FSunny.6 mph44%30.22 "Hg10 mi
10:52 AM44 °FSunny.3 mph43%30.23 "Hg10 mi
9:52 AM41 °FSunny.No wind67%30.25 "Hg10 mi
8:52 AM35 °FSunny.No wind82%30.24 "Hg10 mi
7:52 AM28 °FSunny.5 mph93%30.26 "Hg10 mi
6:52 AM23 °FClear.No wind92%30.23 "Hg10 mi
Weather by CustomWeather, © 2014

See weather overview